TimeAKDT,TemperatureF,Dew PointF,Humidity,Sea Level PressureIn,VisibilityMPH,Wind Direction,Wind SpeedMPH,Gust SpeedMPH,PrecipitationIn,Events,Conditions,WindDirDegrees,DateUTC
12:56 AM,62.1,46.9,58,29.90,10.0,SW,4.6,-,N/A,,Mostly Cloudy,220,2013-08-05 08:56:00
1:56 AM,55.0,48.9,80,29.91,10.0,SE,6.9,-,N/A,,Clear,140,2013-08-05 09:56:00
2:56 AM,53.1,48.9,86,29.93,10.0,Calm,Calm,-,N/A,,Clear,0,2013-08-05 10:56:00
3:56 AM,51.1,46.9,86,29.94,10.0,East,3.5,-,N/A,,Scattered Clouds,100,2013-08-05 11:56:00
4:56 AM,51.1,46.9,86,29.94,9.0,East,4.6,-,N/A,,Overcast,80,2013-08-05 12:56:00
5:56 AM,51.1,46.9,86,29.95,9.0,ENE,3.5,-,N/A,,Overcast,60,2013-08-05 13:56:00
6:12 AM,51.8,46.4,82,29.94,25.0,NE,3.5,-,N/A,,Mostly Cloudy,50,2013-08-05 14:12:00
6:55 AM,51.8,48.2,88,29.95,13.0,NE,4.6,-,N/A,,Mostly Cloudy,50,2013-08-05 14:55:00
7:55 AM,53.6,46.4,77,29.95,13.0,ENE,5.8,-,N/A,,Mostly Cloudy,60,2013-08-05 15:55:00
8:55 AM,57.2,48.2,72,29.95,25.0,East,6.9,-,N/A,,Scattered Clouds,90,2013-08-05 16:55:00
9:55 AM,60.8,48.2,63,29.94,13.0,Calm,Calm,-,N/A,,Scattered Clouds,0,2013-08-05 17:55:00
10:55 AM,64.4,48.2,56,29.94,25.0,Variable,3.5,-,N/A,,Mostly Cloudy,0,2013-08-05 18:55:00
11:55 AM,69.8,48.2,46,29.92,25.0,Calm,Calm,-,N/A,,Scattered Clouds,0,2013-08-05 19:55:00
12:55 PM,71.6,44.6,38,29.91,25.0,Calm,Calm,-,N/A,,Scattered Clouds,0,2013-08-05 20:55:00
1:55 PM,73.4,42.8,33,29.91,25.0,Calm,Calm,-,N/A,,Scattered Clouds,0,2013-08-05 21:55:00
2:55 PM,75.2,39.2,27,29.88,25.0,Variable,4.6,-,N/A,,Scattered Clouds,0,2013-08-05 22:55:00
3:55 PM,75.2,41.0,29,29.88,25.0,SW,6.9,-,N/A,,Scattered Clouds,230,2013-08-05 23:55:00
4:55 PM,75.2,41.0,29,29.86,25.0,Calm,Calm,-,N/A,,Mostly Cloudy,0,2013-08-06 00:55:00
5:55 PM,75.2,41.0,29,29.87,25.0,South,4.6,-,N/A,,Mostly Cloudy,180,2013-08-06 01:55:00
6:55 PM,75.2,41.0,29,29.86,25.0,South,3.5,-,N/A,,Mostly Cloudy,170,2013-08-06 02:55:00
7:55 PM,73.4,42.8,33,29.86,25.0,South,4.6,-,N/A,,Mostly Cloudy,180,2013-08-06 03:55:00
8:55 PM,73.4,41.0,31,29.87,25.0,South,3.5,-,N/A,,Mostly Cloudy,180,2013-08-06 04:55:00
9:55 PM,69.8,44.6,40,29.88,25.0,Calm,Calm,-,N/A,,Mostly Cloudy,0,2013-08-06 05:55:00
10:56 PM,63.0,46.0,54,29.89,10.0,ENE,3.5,-,N/A,,Clear,60,2013-08-06 06:56:00
11:56 PM,59.0,45.0,60,29.91,10.0,ENE,3.5,-,N/A,,Clear,70,2013-08-06 07:56:00